Location: Ferintosh
(52.7647°N, 112.9692°W)
Time: 14:32:03
(UTC+00:00)

Transit 2A - Pass Details

Date: 25 May 2024
Orbit: 592 x 959 km, 66.7° (Epoch: 23 June)

Event Time Altitude Azimuth Distance (km) Brightness Sun altitude
Rises 08:09:08 0° 267° (W) 3,060 9.0 -15.7°
Reaches altitude 10° 08:11:44 10° 281° (W) 2,205 8.4 -15.6°
Maximum altitude 08:15:55 26° 337° (NNW) 1,497 8.2 -15.5°
Drops below altitude 10° 08:20:29 10° 33° (NNE) 2,419 9.7 -15.3°
Sets 08:23:30 0° 46° (NE) 3,422 10.4 -15.2°
